TEJ584 SCEL-YSSY

Flight info

Callsign TEJ584
Flight time N/A
Altitude 35000
Route ANGOD6C ANGOD UQ803 SUMKO/N0493F370 UT115 VLD DCT 47S077W 54S082W 56S084W/N0480F390 61S090W/N0481F380 64S096W 68S108W/N0485F400 70S116W 71S131W 71S140W 70S150W 69S160W 67S170W 63S180W 57S170E 51S163E/N0497F430 45S158E DCT 39S54 DCT MARLN MARLN5
Aircraft A359/H-SDE2E3GHIJ3J4J5LM1ORWXY/LB1D1

Departure

Time 2026-05-07 07:05
Airport Comodoro Arturo Merino Benítez International Airport (SCEL)

Arrival

Time N/A
Airport Sydney Kingsford Smith International Airport (YSSY)
Time Latitude Longitude Altitude Speed Heading
2026-05-07 06:35 -33.40076 -70.79702 1570 ft 0 kts 358°
2026-05-07 06:47 -33.40078 -70.79702 1570 ft 2 kts 358°
2026-05-07 06:47 -33.40103 -70.79701 1570 ft 4 kts 356°
2026-05-07 06:48 -33.40128 -70.79697 1570 ft 4 kts 336°
2026-05-07 06:48 -33.40146 -70.79686 1570 ft 4 kts 313°
2026-05-07 06:48 -33.40156 -70.79666 1570 ft 4 kts 274°
2026-05-07 06:48 -33.40156 -70.79641 1570 ft 1 kts 268°
2026-05-07 06:49 -33.40157 -70.79667 1570 ft 4 kts 268°
2026-05-07 06:49 -33.40158 -70.79695 1570 ft 1 kts 267°
2026-05-07 06:49 -33.40158 -70.79696 1570 ft 0 kts 267°
2026-05-07 06:55 -33.40158 -70.79699 1571 ft 2 kts 268°
2026-05-07 06:55 -33.40159 -70.79750 1571 ft 8 kts 268°
2026-05-07 06:55 -33.40161 -70.79822 1571 ft 9 kts 268°
2026-05-07 06:56 -33.40163 -70.79901 1571 ft 10 kts 268°
2026-05-07 06:56 -33.40157 -70.79976 1572 ft 9 kts 297°
2026-05-07 06:56 -33.40108 -70.80004 1573 ft 8 kts 352°
2026-05-07 06:56 -33.40049 -70.80011 1573 ft 9 kts 355°
2026-05-07 06:57 -33.39982 -70.80017 1572 ft 10 kts 357°
2026-05-07 06:57 -33.39907 -70.80022 1572 ft 11 kts 357°
2026-05-07 06:57 -33.39824 -70.80027 1572 ft 12 kts 357°
2026-05-07 06:57 -33.39737 -70.80032 1572 ft 13 kts 357°
2026-05-07 06:58 -33.39649 -70.80037 1572 ft 12 kts 357°
2026-05-07 06:58 -33.39573 -70.80041 1572 ft 11 kts 357°
2026-05-07 06:58 -33.39491 -70.80046 1572 ft 12 kts 357°
2026-05-07 06:58 -33.39404 -70.80050 1572 ft 13 kts 357°
2026-05-07 06:59 -33.39312 -70.80055 1572 ft 13 kts 357°
2026-05-07 06:59 -33.39216 -70.80061 1572 ft 14 kts 357°
2026-05-07 06:59 -33.39116 -70.80067 1572 ft 15 kts 357°
2026-05-07 06:59 -33.39012 -70.80073 1573 ft 15 kts 357°
2026-05-07 07:00 -33.38906 -70.80078 1573 ft 16 kts 357°
2026-05-07 07:00 -33.38795 -70.80084 1573 ft 16 kts 357°
2026-05-07 07:00 -33.38680 -70.80091 1573 ft 17 kts 357°
2026-05-07 07:00 -33.38561 -70.80097 1573 ft 17 kts 357°
2026-05-07 07:01 -33.38440 -70.80103 1573 ft 18 kts 357°
2026-05-07 07:01 -33.38312 -70.80110 1572 ft 19 kts 357°
2026-05-07 07:01 -33.38180 -70.80117 1572 ft 19 kts 358°
2026-05-07 07:01 -33.38047 -70.80125 1572 ft 19 kts 357°
2026-05-07 07:02 -33.37910 -70.80132 1572 ft 20 kts 358°
2026-05-07 07:02 -33.37772 -70.80139 1572 ft 20 kts 357°
2026-05-07 07:02 -33.37634 -70.80146 1573 ft 20 kts 358°
2026-05-07 07:02 -33.37494 -70.80153 1573 ft 20 kts 358°
2026-05-07 07:03 -33.37354 -70.80161 1573 ft 20 kts 357°
2026-05-07 07:03 -33.37222 -70.80167 1573 ft 18 kts 358°
2026-05-07 07:03 -33.37125 -70.80205 1574 ft 14 kts 315°
2026-05-07 07:03 -33.37105 -70.80297 1578 ft 9 kts 261°
2026-05-07 07:04 -33.37129 -70.80353 1580 ft 7 kts 227°
2026-05-07 07:04 -33.37176 -70.80374 1580 ft 8 kts 184°
2026-05-07 07:04 -33.37236 -70.80372 1579 ft 9 kts 177°
2026-05-07 07:04 -33.37455 -70.80359 1580 ft 63 kts 177°
2026-05-07 07:05 -33.38111 -70.80326 1578 ft 124 kts 177°
2026-05-07 07:05 -33.39147 -70.80270 1588 ft 174 kts 177°
2026-05-07 07:05 -33.40346 -70.80188 2215 ft 173 kts 175°
2026-05-07 07:05 -33.41591 -70.80102 2646 ft 186 kts 177°
2026-05-07 07:06 -33.42931 -70.80038 2944 ft 198 kts 178°
2026-05-07 07:06 -33.44331 -70.79972 3369 ft 207 kts 177°
2026-05-07 07:06 -33.45854 -70.79896 3544 ft 230 kts 177°
2026-05-07 07:06 -33.47521 -70.79809 3811 ft 249 kts 177°
2026-05-07 07:07 -33.48682 -70.79748 4083 ft 256 kts 177°
2026-05-07 07:07 -33.50485 -70.79652 4667 ft 262 kts 177°
2026-05-07 07:07 -33.52925 -70.79521 5437 ft 268 kts 177°
2026-05-07 07:07 -33.54808 -70.79423 6066 ft 273 kts 178°
2026-05-07 07:08 -33.56719 -70.79322 6726 ft 277 kts 178°
2026-05-07 07:08 -33.57995 -70.79261 7165 ft 278 kts 179°
2026-05-07 07:08 -33.59915 -70.79479 7891 ft 277 kts 193°
2026-05-07 07:08 -33.61781 -70.80030 8673 ft 276 kts 196°
2026-05-07 07:09 -33.63635 -70.80621 9465 ft 276 kts 196°
2026-05-07 07:09 -33.65491 -70.81209 10213 ft 278 kts 196°
2026-05-07 07:09 -33.68061 -70.82017 10676 ft 299 kts 196°
2026-05-07 07:09 -33.70134 -70.82666 10978 ft 317 kts 196°
2026-05-07 07:10 -33.72319 -70.83348 11275 ft 333 kts 196°
2026-05-07 07:10 -33.73829 -70.83818 11473 ft 343 kts 196°
2026-05-07 07:10 -33.76189 -70.84554 11772 ft 357 kts 196°
2026-05-07 07:10 -33.78624 -70.85313 12250 ft 365 kts 196°
2026-05-07 07:11 -33.81096 -70.86082 12879 ft 368 kts 196°
2026-05-07 07:11 -33.83585 -70.86858 13528 ft 371 kts 196°
2026-05-07 07:11 -33.86098 -70.87642 14145 ft 374 kts 196°
2026-05-07 07:11 -33.89451 -70.88688 14906 ft 378 kts 196°
2026-05-07 07:12 -33.91173 -70.89226 15310 ft 379 kts 197°
2026-05-07 07:12 -33.93730 -70.90026 15897 ft 381 kts 197°
2026-05-07 07:12 -33.96274 -70.90821 16468 ft 384 kts 197°
2026-05-07 07:12 -33.98869 -70.91634 17033 ft 387 kts 197°
2026-05-07 07:13 -34.01480 -70.92451 17670 ft 389 kts 197°
2026-05-07 07:13 -34.04115 -70.93253 18296 ft 392 kts 196°
2026-05-07 07:13 -34.06781 -70.93993 18871 ft 395 kts 195°
2026-05-07 07:13 -34.09477 -70.94703 19413 ft 398 kts 195°
2026-05-07 07:14 -34.12192 -70.95412 19961 ft 401 kts 195°
2026-05-07 07:14 -34.14928 -70.96132 20520 ft 404 kts 195°
2026-05-07 07:14 -34.17644 -70.96855 21068 ft 406 kts 195°
2026-05-07 07:14 -34.20411 -70.97600 21620 ft 409 kts 195°
2026-05-07 07:15 -34.23201 -70.98357 22173 ft 412 kts 195°
2026-05-07 07:15 -34.26003 -70.99122 22684 ft 415 kts 195°
2026-05-07 07:15 -34.28825 -70.99893 23216 ft 417 kts 196°
2026-05-07 07:15 -34.31667 -71.00671 23741 ft 421 kts 196°
2026-05-07 07:16 -34.34533 -71.01455 24169 ft 423 kts 195°
2026-05-07 07:16 -34.37406 -71.02240 24742 ft 422 kts 195°
2026-05-07 07:16 -34.40262 -71.03021 25308 ft 421 kts 195°
2026-05-07 07:16 -34.43114 -71.03802 25824 ft 421 kts 195°
2026-05-07 07:17 -34.45935 -71.04575 26317 ft 421 kts 195°
2026-05-07 07:17 -34.48793 -71.05358 26820 ft 422 kts 195°
2026-05-07 07:17 -34.51659 -71.06146 27303 ft 423 kts 194°
2026-05-07 07:17 -34.54527 -71.06935 27770 ft 423 kts 194°
2026-05-07 07:18 -34.57401 -71.07725 28214 ft 424 kts 194°
2026-05-07 07:18 -34.60277 -71.08515 28694 ft 424 kts 194°
2026-05-07 07:18 -34.63154 -71.09307 29163 ft 424 kts 194°
2026-05-07 07:18 -34.66032 -71.10099 29590 ft 425 kts 194°
2026-05-07 07:19 -34.68922 -71.10896 29972 ft 426 kts 194°
2026-05-07 07:19 -34.71765 -71.11680 30436 ft 424 kts 194°
2026-05-07 07:19 -34.74634 -71.12466 30920 ft 421 kts 193°
2026-05-07 07:19 -34.77503 -71.13192 31229 ft 422 kts 192°
2026-05-07 07:20 -34.80381 -71.13876 31549 ft 422 kts 192°
2026-05-07 07:20 -34.83262 -71.14548 31910 ft 420 kts 191°
2026-05-07 07:20 -34.86128 -71.15220 32275 ft 419 kts 191°
2026-05-07 07:20 -34.88985 -71.15897 32627 ft 418 kts 191°
2026-05-07 07:21 -34.91836 -71.16582 32981 ft 417 kts 191°
2026-05-07 07:21 -34.94639 -71.17261 33298 ft 416 kts 191°
2026-05-07 07:21 -34.97468 -71.17950 33642 ft 414 kts 191°
2026-05-07 07:21 -35.00289 -71.18638 33991 ft 413 kts 191°
2026-05-07 07:22 -35.03101 -71.19326 34290 ft 411 kts 191°
2026-05-07 07:22 -35.05905 -71.20011 34530 ft 411 kts 191°
2026-05-07 07:22 -35.08714 -71.20699 34704 ft 412 kts 191°
2026-05-07 07:22 -35.11528 -71.21387 34899 ft 413 kts 191°
2026-05-07 07:23 -35.14347 -71.22077 35080 ft 413 kts 191°
2026-05-07 07:23 -35.17165 -71.22767 35236 ft 415 kts 191°
2026-05-07 07:23 -35.22873 -71.24167 35273 ft 421 kts 191°
2026-05-07 07:24 -35.28560 -71.25564 35281 ft 419 kts 191°
2026-05-07 07:24 -35.34257 -71.26964 35288 ft 417 kts 191°
2026-05-07 07:25 -35.42772 -71.29062 35289 ft 415 kts 191°
2026-05-07 07:26 -35.48381 -71.30447 35295 ft 413 kts 190°
2026-05-07 07:26 -35.54006 -71.31837 35289 ft 411 kts 190°
2026-05-07 07:27 -35.59600 -71.33230 35289 ft 410 kts 190°
2026-05-07 07:27 -35.65179 -71.34612 35291 ft 408 kts 190°
2026-05-07 07:28 -35.70736 -71.35990 35293 ft 406 kts 190°
2026-05-07 07:28 -35.76225 -71.37359 35295 ft 405 kts 190°
2026-05-07 07:29 -35.81738 -71.38732 35314 ft 403 kts 190°
2026-05-07 07:29 -35.87221 -71.40099 35302 ft 401 kts 190°
2026-05-07 07:30 -35.92683 -71.41464 35297 ft 399 kts 190°
2026-05-07 07:30 -35.98085 -71.42817 35293 ft 398 kts 189°
2026-05-07 07:31 -36.03502 -71.44174 35300 ft 397 kts 189°
2026-05-07 07:31 -36.08902 -71.45528 35298 ft 395 kts 189°
2026-05-07 07:32 -36.14277 -71.46881 35301 ft 393 kts 189°
2026-05-07 07:32 -36.19594 -71.48222 35301 ft 392 kts 189°
2026-05-07 07:33 -36.24923 -71.49565 35297 ft 390 kts 189°
2026-05-07 07:33 -36.30227 -71.50903 35300 ft 388 kts 189°
2026-05-07 07:34 -36.35504 -71.52237 35300 ft 386 kts 189°
2026-05-07 07:34 -36.40722 -71.53557 35304 ft 384 kts 189°
2026-05-07 07:35 -36.45954 -71.54882 35309 ft 383 kts 189°
2026-05-07 07:35 -36.51171 -71.56211 35302 ft 382 kts 189°
2026-05-07 07:36 -36.56370 -71.57533 35308 ft 380 kts 189°
2026-05-07 07:36 -36.61543 -71.58848 35305 ft 379 kts 189°
2026-05-07 07:37 -36.66663 -71.60152 35308 ft 378 kts 189°
2026-05-07 07:37 -36.71801 -71.61463 35300 ft 377 kts 189°
2026-05-07 07:38 -36.76926 -71.62771 35317 ft 376 kts 189°
2026-05-07 07:38 -36.82046 -71.64082 35303 ft 374 kts 189°
2026-05-07 07:39 -36.87099 -71.65378 35322 ft 373 kts 189°
2026-05-07 07:39 -36.92167 -71.66679 35320 ft 371 kts 189°
2026-05-07 07:40 -36.97221 -71.67977 35319 ft 370 kts 189°
2026-05-07 07:40 -37.02258 -71.69273 35308 ft 369 kts 189°
2026-05-07 07:41 -37.07248 -71.70560 35309 ft 368 kts 189°
2026-05-07 07:41 -37.12256 -71.71854 35319 ft 367 kts 189°
2026-05-07 07:42 -37.17255 -71.73145 35318 ft 366 kts 188°
2026-05-07 07:42 -37.22240 -71.74433 35314 ft 366 kts 189°
2026-05-07 07:43 -37.27183 -71.75703 35316 ft 365 kts 188°
2026-05-07 07:43 -37.32149 -71.76991 35308 ft 364 kts 188°
2026-05-07 07:44 -37.37101 -71.78283 35308 ft 363 kts 189°
2026-05-07 07:44 -37.42046 -71.79573 35306 ft 363 kts 188°
2026-05-07 07:45 -37.46949 -71.80849 35301 ft 362 kts 188°
2026-05-07 07:45 -37.51873 -71.82133 35304 ft 361 kts 188°
2026-05-07 07:46 -37.56786 -71.83415 35302 ft 360 kts 188°
2026-05-07 07:46 -37.61689 -71.84697 35306 ft 360 kts 188°
2026-05-07 07:47 -37.66556 -71.85971 35307 ft 359 kts 188°
2026-05-07 07:47 -37.71399 -71.87481 35617 ft 360 kts 194°
2026-05-07 07:47 -37.73742 -71.88663 35781 ft 364 kts 199°
2026-05-07 07:48 -37.76038 -71.90035 35922 ft 366 kts 199°
2026-05-07 07:48 -37.78330 -71.91466 36097 ft 368 kts 200°
2026-05-07 07:48 -37.80614 -71.92926 36249 ft 369 kts 200°
2026-05-07 07:48 -37.82905 -71.94403 36410 ft 369 kts 200°
2026-05-07 07:49 -37.85164 -71.95862 36549 ft 370 kts 200°
2026-05-07 07:49 -37.87461 -71.97341 36681 ft 371 kts 200°
2026-05-07 07:49 -37.89766 -71.98822 36822 ft 372 kts 200°
2026-05-07 07:49 -37.92077 -72.00302 36947 ft 373 kts 200°
2026-05-07 07:50 -37.94397 -72.01787 37089 ft 374 kts 201°
2026-05-07 07:50 -37.96719 -72.03273 37232 ft 374 kts 201°
2026-05-07 07:50 -37.99051 -72.04767 37297 ft 377 kts 201°
2026-05-07 07:51 -38.03730 -72.07768 37296 ft 381 kts 201°
2026-05-07 07:51 -38.08437 -72.10799 37298 ft 379 kts 201°
2026-05-07 07:52 -38.13132 -72.13825 37291 ft 378 kts 201°
2026-05-07 07:52 -38.17820 -72.16849 37300 ft 378 kts 200°
2026-05-07 07:53 -38.22465 -72.19848 37304 ft 377 kts 200°
2026-05-07 07:53 -38.27136 -72.22867 37299 ft 376 kts 200°
2026-05-07 07:54 -38.31795 -72.25884 37293 ft 375 kts 200°
2026-05-07 07:54 -38.36452 -72.28905 37293 ft 375 kts 200°
2026-05-07 07:55 -38.41094 -72.31920 37294 ft 374 kts 200°
2026-05-07 07:55 -38.45703 -72.34917 37292 ft 374 kts 200°
2026-05-07 07:56 -38.50335 -72.37934 37289 ft 374 kts 200°
2026-05-07 07:56 -38.54968 -72.40958 37291 ft 374 kts 201°
2026-05-07 07:57 -38.59594 -72.43980 37294 ft 374 kts 201°
2026-05-07 07:57 -38.64187 -72.46986 37292 ft 373 kts 201°
2026-05-07 07:58 -38.68799 -72.50009 37291 ft 372 kts 201°
2026-05-07 07:58 -38.73407 -72.53034 37294 ft 372 kts 201°
2026-05-07 07:59 -38.78006 -72.56057 37291 ft 371 kts 201°
2026-05-07 07:59 -38.82596 -72.59078 37291 ft 371 kts 201°
2026-05-07 08:00 -38.87147 -72.62079 37292 ft 370 kts 201°
2026-05-07 08:00 -38.91725 -72.65095 37291 ft 369 kts 200°
2026-05-07 08:01 -38.96376 -72.67819 37293 ft 367 kts 198°
2026-05-07 08:01 -39.01059 -72.70397 37290 ft 366 kts 198°
2026-05-07 08:02 -39.05693 -72.72996 37289 ft 365 kts 198°
2026-05-07 08:02 -39.10341 -72.75651 37290 ft 365 kts 199°
2026-05-07 08:03 -39.14986 -72.78323 37286 ft 365 kts 199°
2026-05-07 08:03 -39.19629 -72.80998 37286 ft 365 kts 199°
2026-05-07 08:04 -39.24241 -72.83658 37280 ft 366 kts 199°
2026-05-07 08:04 -39.28883 -72.86335 37276 ft 366 kts 199°
2026-05-07 08:05 -39.33531 -72.89027 37280 ft 366 kts 199°
2026-05-07 08:05 -39.38183 -72.91715 37278 ft 366 kts 199°
2026-05-07 08:06 -39.42807 -72.94394 37281 ft 366 kts 199°
2026-05-07 08:06 -39.47461 -72.97095 37285 ft 367 kts 199°